Location: Ripley
(48.3812°N, 115.4473°W)
Time: 17:29:09
(UTC+00:00)

O/OREOS (USA 219) - Pass Details

Date: 02 July 2022
Orbit: 621 x 646 km, 72.0° (Epoch: 22 May)

Event Time Altitude Azimuth Distance (km) Brightness Sun altitude
Rises 05:54:45 0° 344° (NNW) 2,963 ? -14.4°
Reaches altitude 10° 05:58:09 10° 10° (N) 2,053 ? -14.6°
Maximum altitude 06:00:32 14° 41° (NE) 1,805 ? -14.8°
Drops below altitude 10° 06:02:56 10° 73° (ENE) 2,050 ? -15.0°
Enters shadow 06:05:28 - 94° (E) 2,693 ? -15.1°
